Year,Month,Day,Hour,Minute,Value (Times are PST for temperature in C)
2007,07,08,00,00,14.20
2007,07,08,00,01,14.20
2007,07,08,00,02,14.20
2007,07,08,00,03,14.20
2007,07,08,00,04,14.20
2007,07,08,00,05,14.20
2007,07,08,00,06,14.20
2007,07,08,00,07,14.20
2007,07,08,00,08,14.20
2007,07,08,00,09,14.20
2007,07,08,00,10,14.20
2007,07,08,00,11,14.20
2007,07,08,00,12,14.20
2007,07,08,00,13,14.20
2007,07,08,00,14,14.20
2007,07,08,00,15,14.20
2007,07,08,00,16,14.30
2007,07,08,00,17,14.30
2007,07,08,00,18,14.30
2007,07,08,00,19,14.30
2007,07,08,00,20,14.30
2007,07,08,00,21,14.30
2007,07,08,00,22,14.30
2007,07,08,00,23,14.30
2007,07,08,00,24,14.30
2007,07,08,00,25,14.40
2007,07,08,00,26,14.40
2007,07,08,00,27,14.40
2007,07,08,00,28,14.40
2007,07,08,00,29,14.40
2007,07,08,00,30,14.40
2007,07,08,00,31,14.40
2007,07,08,00,32,14.40
2007,07,08,00,33,14.40
2007,07,08,00,34,14.50
2007,07,08,00,35,14.50
2007,07,08,00,36,14.60
2007,07,08,00,37,14.60
2007,07,08,00,38,14.60
2007,07,08,00,39,14.70
2007,07,08,00,40,14.70
2007,07,08,00,41,14.80
2007,07,08,00,42,14.80
2007,07,08,00,43,14.90
2007,07,08,00,44,14.90
2007,07,08,00,45,15.00
2007,07,08,00,46,15.00
2007,07,08,00,47,15.00
2007,07,08,00,48,15.00
2007,07,08,00,49,15.00
2007,07,08,00,50,15.00
2007,07,08,00,51,15.00
2007,07,08,00,52,15.00
2007,07,08,00,53,15.00
2007,07,08,00,54,15.00
2007,07,08,00,55,15.00
2007,07,08,00,56,15.00
2007,07,08,00,57,15.00
2007,07,08,00,58,15.00
2007,07,08,00,59,15.00
2007,07,08,01,00,15.00
2007,07,08,01,01,15.10
2007,07,08,01,02,15.10
2007,07,08,01,03,15.20
2007,07,08,01,04,15.20
2007,07,08,01,05,15.20
2007,07,08,01,06,15.30
2007,07,08,01,07,15.30
2007,07,08,01,08,15.30
2007,07,08,01,09,15.40
2007,07,08,01,10,15.40
2007,07,08,01,11,15.40
2007,07,08,01,12,15.40
2007,07,08,01,13,15.50
2007,07,08,01,14,15.50
2007,07,08,01,15,15.60
2007,07,08,01,16,15.60
2007,07,08,01,17,15.60
2007,07,08,01,18,15.70
2007,07,08,01,19,15.70
2007,07,08,01,20,15.70
2007,07,08,01,21,15.70
2007,07,08,01,22,15.80
2007,07,08,01,23,15.80
2007,07,08,01,24,15.80
2007,07,08,01,25,15.80
2007,07,08,01,26,15.80
2007,07,08,01,27,15.80
2007,07,08,01,28,15.80
2007,07,08,01,29,15.80
2007,07,08,01,30,15.80
2007,07,08,01,31,15.80
2007,07,08,01,32,15.80
2007,07,08,01,33,15.80
2007,07,08,01,34,15.70
2007,07,08,01,35,15.70
2007,07,08,01,36,15.70
2007,07,08,01,37,15.70
2007,07,08,01,38,15.60
2007,07,08,01,39,15.60
2007,07,08,01,40,15.60
2007,07,08,01,41,15.60
2007,07,08,01,42,15.60
2007,07,08,01,43,15.50
2007,07,08,01,44,15.50
2007,07,08,01,45,15.50
2007,07,08,01,46,15.50
2007,07,08,01,47,15.50
2007,07,08,01,48,15.50
2007,07,08,01,49,15.50
2007,07,08,01,50,15.50
2007,07,08,01,51,15.50
2007,07,08,01,52,15.50
2007,07,08,01,53,15.60
2007,07,08,01,54,15.60
2007,07,08,01,55,15.60
2007,07,08,01,56,15.60
2007,07,08,01,57,15.70
2007,07,08,01,58,15.70
2007,07,08,01,59,15.70
2007,07,08,02,00,15.70
2007,07,08,02,01,15.80
2007,07,08,02,02,15.80
2007,07,08,02,03,15.80
2007,07,08,02,04,15.90
2007,07,08,02,05,15.90
2007,07,08,02,06,15.90
2007,07,08,02,07,16.00
2007,07,08,02,08,16.00
2007,07,08,02,09,16.00
2007,07,08,02,10,16.10
2007,07,08,02,11,16.10
2007,07,08,02,12,16.10
2007,07,08,02,13,16.10
2007,07,08,02,14,16.10
2007,07,08,02,15,16.10
2007,07,08,02,16,16.10
2007,07,08,02,17,16.20
2007,07,08,02,18,16.10
2007,07,08,02,19,16.10
2007,07,08,02,20,16.10
2007,07,08,02,21,16.10
2007,07,08,02,22,16.10
2007,07,08,02,23,16.00
2007,07,08,02,24,16.00
2007,07,08,02,25,16.00
2007,07,08,02,26,16.00
2007,07,08,02,27,16.00
2007,07,08,02,28,16.00
2007,07,08,02,29,16.00
2007,07,08,02,30,16.00
2007,07,08,02,31,16.00
2007,07,08,02,32,16.10
2007,07,08,02,33,16.10
2007,07,08,02,34,16.10
2007,07,08,02,35,16.10
2007,07,08,02,36,16.10
2007,07,08,02,37,16.10
2007,07,08,02,38,16.10
2007,07,08,02,39,16.20
2007,07,08,02,40,16.20
2007,07,08,02,41,16.20
2007,07,08,02,42,16.20
2007,07,08,02,43,16.20
2007,07,08,02,44,16.30
2007,07,08,02,45,16.30
2007,07,08,02,46,16.30
2007,07,08,02,47,16.30
2007,07,08,02,48,16.30
2007,07,08,02,49,16.30
2007,07,08,02,50,16.30
2007,07,08,02,51,16.30
2007,07,08,02,52,16.30
2007,07,08,02,53,16.30
2007,07,08,02,54,16.30
2007,07,08,02,55,16.30
2007,07,08,02,56,16.30
2007,07,08,02,57,16.40
2007,07,08,02,58,16.40
2007,07,08,02,59,16.40
2007,07,08,03,00,16.40
2007,07,08,03,01,16.50
2007,07,08,03,02,16.50
2007,07,08,03,03,16.50
2007,07,08,03,04,16.60
2007,07,08,03,05,16.60
2007,07,08,03,06,16.60
2007,07,08,03,07,16.60
2007,07,08,03,08,16.60
2007,07,08,03,09,16.60
2007,07,08,03,10,16.60
2007,07,08,03,11,16.60
2007,07,08,03,12,16.60
2007,07,08,03,13,16.50
2007,07,08,03,14,16.50
2007,07,08,03,15,16.50
2007,07,08,03,16,16.50
2007,07,08,03,17,16.40
2007,07,08,03,18,16.40
2007,07,08,03,19,16.40
2007,07,08,03,20,16.40
2007,07,08,03,21,16.40
2007,07,08,03,22,16.40
2007,07,08,03,23,16.40
2007,07,08,03,24,16.40
2007,07,08,03,25,16.40
2007,07,08,03,26,16.40
2007,07,08,03,27,16.40
2007,07,08,03,28,16.40
2007,07,08,03,29,16.40
2007,07,08,03,30,16.40
2007,07,08,03,31,16.40
2007,07,08,03,32,16.40
2007,07,08,03,33,16.40
2007,07,08,03,34,16.40
2007,07,08,03,35,16.40
2007,07,08,03,36,16.40
2007,07,08,03,37,16.40
2007,07,08,03,38,16.30
2007,07,08,03,39,16.30
2007,07,08,03,40,16.30
2007,07,08,03,41,16.30
2007,07,08,03,42,16.30
2007,07,08,03,43,16.30
2007,07,08,03,44,16.30
2007,07,08,03,45,16.30
2007,07,08,03,46,16.30
2007,07,08,03,47,16.30
2007,07,08,03,48,16.30
2007,07,08,03,49,16.30
2007,07,08,03,50,16.30
2007,07,08,03,51,16.30
2007,07,08,03,52,16.30
2007,07,08,03,53,16.30
2007,07,08,03,54,16.30
2007,07,08,03,55,16.30
2007,07,08,03,56,16.30
2007,07,08,03,57,16.30
2007,07,08,03,58,16.30
2007,07,08,03,59,16.30
2007,07,08,04,00,16.20
2007,07,08,04,01,16.20
2007,07,08,04,02,16.20
2007,07,08,04,03,16.20
2007,07,08,04,04,16.20
2007,07,08,04,05,16.20
2007,07,08,04,06,16.10
2007,07,08,04,07,16.10
2007,07,08,04,08,16.10
2007,07,08,04,09,16.10
2007,07,08,04,10,16.10
2007,07,08,04,11,16.10
2007,07,08,04,12,16.10
2007,07,08,04,13,16.10
2007,07,08,04,14,16.20
2007,07,08,04,15,16.20
2007,07,08,04,16,16.20
2007,07,08,04,17,16.20
2007,07,08,04,18,16.20
2007,07,08,04,19,16.30
2007,07,08,04,20,16.30
2007,07,08,04,21,16.30
2007,07,08,04,22,16.30
2007,07,08,04,23,16.30
2007,07,08,04,24,16.30
2007,07,08,04,25,16.30
2007,07,08,04,26,16.30
2007,07,08,04,27,16.30
2007,07,08,04,28,16.40
2007,07,08,04,29,16.40
2007,07,08,04,30,16.40
2007,07,08,04,31,16.40
2007,07,08,04,32,16.40
2007,07,08,04,33,16.40
2007,07,08,04,34,16.40
2007,07,08,04,35,16.40
2007,07,08,04,36,16.40
2007,07,08,04,37,16.40
2007,07,08,04,38,16.40
2007,07,08,04,39,16.40
2007,07,08,04,40,16.40
2007,07,08,04,41,16.30
2007,07,08,04,42,16.30
2007,07,08,04,43,16.30
2007,07,08,04,44,16.30
2007,07,08,04,45,16.30
2007,07,08,04,46,16.30
2007,07,08,04,47,16.30
2007,07,08,04,48,16.30
2007,07,08,04,49,16.30
2007,07,08,04,50,16.20
2007,07,08,04,51,16.20
2007,07,08,04,52,16.20
2007,07,08,04,53,16.20
2007,07,08,04,54,16.10
2007,07,08,04,55,16.10
2007,07,08,04,56,16.00
2007,07,08,04,57,15.90
2007,07,08,04,58,15.90
2007,07,08,04,59,15.80
2007,07,08,05,00,15.80
2007,07,08,05,01,15.80
2007,07,08,05,02,15.80
2007,07,08,05,03,15.70
2007,07,08,05,04,15.70
2007,07,08,05,05,15.70
2007,07,08,05,06,15.60
2007,07,08,05,07,15.60
2007,07,08,05,08,15.60
2007,07,08,05,09,15.50
2007,07,08,05,10,15.40
2007,07,08,05,11,15.40
2007,07,08,05,12,15.40
2007,07,08,05,13,15.40
2007,07,08,05,14,15.30
2007,07,08,05,15,15.20
2007,07,08,05,16,15.20
2007,07,08,05,17,15.10
2007,07,08,05,18,15.10
2007,07,08,05,19,15.00
2007,07,08,05,20,15.00
2007,07,08,05,21,15.00
2007,07,08,05,22,15.00
2007,07,08,05,23,15.00
2007,07,08,05,24,15.00
2007,07,08,05,25,15.00
2007,07,08,05,26,15.00
2007,07,08,05,27,15.00
2007,07,08,05,28,15.00
2007,07,08,05,29,14.90
2007,07,08,05,30,14.80
2007,07,08,05,31,14.80
2007,07,08,05,32,14.70
2007,07,08,05,33,14.70
2007,07,08,05,34,14.70
2007,07,08,05,35,14.70
2007,07,08,05,36,14.70
2007,07,08,05,37,14.60
2007,07,08,05,38,14.60
2007,07,08,05,39,14.60
2007,07,08,05,40,14.60
2007,07,08,05,41,14.50
2007,07,08,05,42,14.50
2007,07,08,05,43,14.50
2007,07,08,05,44,14.50
2007,07,08,05,45,14.50
2007,07,08,05,46,14.50
2007,07,08,05,47,14.50
2007,07,08,05,48,14.50
2007,07,08,05,49,14.50
2007,07,08,05,50,14.50
2007,07,08,05,51,14.50
2007,07,08,05,52,14.50
2007,07,08,05,53,14.50
2007,07,08,05,54,14.50
2007,07,08,05,55,14.50
2007,07,08,05,56,14.50
2007,07,08,05,57,14.40
2007,07,08,05,58,14.40
2007,07,08,05,59,14.40
2007,07,08,06,00,14.40
2007,07,08,06,01,14.40
2007,07,08,06,02,14.30
2007,07,08,06,03,14.30
2007,07,08,06,04,14.30
2007,07,08,06,05,14.30
2007,07,08,06,06,14.30
2007,07,08,06,07,14.30
2007,07,08,06,08,14.30
2007,07,08,06,09,14.30
2007,07,08,06,10,14.30
2007,07,08,06,11,14.30
2007,07,08,06,12,14.30
2007,07,08,06,13,14.30
2007,07,08,06,14,14.30
2007,07,08,06,15,14.30
2007,07,08,06,16,14.40
2007,07,08,06,17,14.40
2007,07,08,06,18,14.40
2007,07,08,06,19,14.40
2007,07,08,06,20,14.40
2007,07,08,06,21,14.40
2007,07,08,06,22,14.50
2007,07,08,06,23,14.50
2007,07,08,06,24,14.50
2007,07,08,06,25,14.60
2007,07,08,06,26,14.60
2007,07,08,06,27,14.60
2007,07,08,06,28,14.60
2007,07,08,06,29,14.50
2007,07,08,06,30,14.40
2007,07,08,06,31,14.40
2007,07,08,06,32,14.30
2007,07,08,06,33,14.30
2007,07,08,06,34,14.20
2007,07,08,06,35,14.20
2007,07,08,06,36,14.10
2007,07,08,06,37,14.10
2007,07,08,06,38,14.10
2007,07,08,06,39,14.00
2007,07,08,06,40,14.00
2007,07,08,06,41,14.00
2007,07,08,06,42,14.00
2007,07,08,06,43,14.00
2007,07,08,06,44,14.00
2007,07,08,06,45,14.00
2007,07,08,06,46,14.10
2007,07,08,06,47,14.10
2007,07,08,06,48,14.10
2007,07,08,06,49,14.10
2007,07,08,06,50,14.10
2007,07,08,06,51,14.20
2007,07,08,06,52,14.20
2007,07,08,06,53,14.20
2007,07,08,06,54,14.20
2007,07,08,06,55,14.20
2007,07,08,06,56,14.30
2007,07,08,06,57,14.30
2007,07,08,06,58,14.30
2007,07,08,06,59,14.30
2007,07,08,07,00,14.30
2007,07,08,07,01,14.30
2007,07,08,07,02,14.30
2007,07,08,07,03,14.20
2007,07,08,07,04,14.20
2007,07,08,07,05,14.10
2007,07,08,07,06,14.10
2007,07,08,07,07,14.10
2007,07,08,07,08,14.00
2007,07,08,07,09,13.90
2007,07,08,07,10,13.90
2007,07,08,07,11,13.90
2007,07,08,07,12,13.90
2007,07,08,07,13,13.80
2007,07,08,07,14,13.80
2007,07,08,07,15,13.80
2007,07,08,07,16,13.70
2007,07,08,07,17,13.70
2007,07,08,07,18,13.70
2007,07,08,07,19,13.80
2007,07,08,07,20,13.80
2007,07,08,07,21,13.80
2007,07,08,07,22,13.80
2007,07,08,07,23,13.90
2007,07,08,07,24,13.90
2007,07,08,07,25,14.00
2007,07,08,07,26,14.00
2007,07,08,07,27,14.10
2007,07,08,07,28,14.10
2007,07,08,07,29,14.20
2007,07,08,07,30,14.20
2007,07,08,07,31,14.20
2007,07,08,07,32,14.20
2007,07,08,07,33,14.20
2007,07,08,07,34,14.10
2007,07,08,07,35,14.10
2007,07,08,07,36,14.10
2007,07,08,07,37,14.10
2007,07,08,07,38,14.10
2007,07,08,07,39,14.10
2007,07,08,07,40,14.10
2007,07,08,07,41,14.20
2007,07,08,07,42,14.20
2007,07,08,07,43,14.20
2007,07,08,07,44,14.30
2007,07,08,07,45,14.30
2007,07,08,07,46,14.40
2007,07,08,07,47,14.40
2007,07,08,07,48,14.50
2007,07,08,07,49,14.60
2007,07,08,07,50,14.60
2007,07,08,07,51,14.60
2007,07,08,07,52,14.70
2007,07,08,07,53,14.70
2007,07,08,07,54,14.80
2007,07,08,07,55,14.80
2007,07,08,07,56,14.80
2007,07,08,07,57,14.90
2007,07,08,07,58,15.00
2007,07,08,07,59,15.00
2007,07,08,08,00,15.00
2007,07,08,08,01,15.00
2007,07,08,08,02,15.00
2007,07,08,08,03,15.00
2007,07,08,08,04,15.00
2007,07,08,08,05,15.00
2007,07,08,08,06,15.10
2007,07,08,08,07,15.10
2007,07,08,08,08,15.10
2007,07,08,08,09,15.20
2007,07,08,08,10,15.20
2007,07,08,08,11,15.20
2007,07,08,08,12,15.20
2007,07,08,08,13,15.20
2007,07,08,08,14,15.30
2007,07,08,08,15,15.30
2007,07,08,08,16,15.30
2007,07,08,08,17,15.30
2007,07,08,08,18,15.30
2007,07,08,08,19,15.30
2007,07,08,08,20,15.30
2007,07,08,08,21,15.30
2007,07,08,08,22,15.30
2007,07,08,08,23,15.30
2007,07,08,08,24,15.30
2007,07,08,08,25,15.20
2007,07,08,08,26,15.20
2007,07,08,08,27,15.10
2007,07,08,08,28,15.10
2007,07,08,08,29,15.00
2007,07,08,08,30,15.00
2007,07,08,08,31,15.00
2007,07,08,08,32,15.00
2007,07,08,08,33,15.00
2007,07,08,08,34,15.00
2007,07,08,08,35,15.00
2007,07,08,08,36,15.00
2007,07,08,08,37,15.00
2007,07,08,08,38,15.00
2007,07,08,08,39,15.10
2007,07,08,08,40,15.10
2007,07,08,08,41,15.20
2007,07,08,08,42,15.20
2007,07,08,08,43,15.20
2007,07,08,08,44,15.20
2007,07,08,08,45,15.20
2007,07,08,08,46,15.20
2007,07,08,08,47,15.20
2007,07,08,08,48,15.20
2007,07,08,08,49,15.20
2007,07,08,08,50,15.20
2007,07,08,08,51,15.20
2007,07,08,08,52,15.10
2007,07,08,08,53,15.00
2007,07,08,08,54,15.00
2007,07,08,08,55,15.00
2007,07,08,08,56,15.00
2007,07,08,08,57,15.00
2007,07,08,08,58,14.80
2007,07,08,08,59,14.80
2007,07,08,09,00,14.80
2007,07,08,09,01,14.70
2007,07,08,09,02,14.70
2007,07,08,09,03,14.70
2007,07,08,09,04,14.70
2007,07,08,09,05,14.70
2007,07,08,09,06,14.80
2007,07,08,09,07,14.80
2007,07,08,09,08,14.80
2007,07,08,09,09,14.80
2007,07,08,09,10,14.90
2007,07,08,09,11,14.90
2007,07,08,09,12,15.00
2007,07,08,09,13,15.00
2007,07,08,09,14,15.00
2007,07,08,09,15,15.00
2007,07,08,09,16,15.00
2007,07,08,09,17,15.00
2007,07,08,09,18,15.00
2007,07,08,09,19,15.00
2007,07,08,09,20,15.00
2007,07,08,09,21,15.00
2007,07,08,09,22,15.00
2007,07,08,09,23,15.00
2007,07,08,09,24,15.00
2007,07,08,09,25,15.00
2007,07,08,09,26,15.00
2007,07,08,09,27,15.00
2007,07,08,09,28,15.00
2007,07,08,09,29,15.00
2007,07,08,09,30,15.00
2007,07,08,09,31,15.00
2007,07,08,09,32,15.00
2007,07,08,09,33,15.00
2007,07,08,09,34,15.00
2007,07,08,09,35,15.00
2007,07,08,09,36,14.90
2007,07,08,09,37,14.80
2007,07,08,09,38,14.70
2007,07,08,09,39,14.70
2007,07,08,09,40,14.60
2007,07,08,09,41,14.60
2007,07,08,09,42,14.60
2007,07,08,09,43,14.50
2007,07,08,09,44,14.50
2007,07,08,09,45,14.50
2007,07,08,09,46,14.40
2007,07,08,09,47,14.50
2007,07,08,09,48,14.50
2007,07,08,09,49,14.40
2007,07,08,09,50,14.40
2007,07,08,09,51,14.40
2007,07,08,09,52,14.40
2007,07,08,09,53,14.40
2007,07,08,09,54,14.40
2007,07,08,09,55,14.40
2007,07,08,09,56,14.40
2007,07,08,09,57,14.40
2007,07,08,09,58,14.40
2007,07,08,09,59,14.40
2007,07,08,10,00,14.30
2007,07,08,10,01,14.30
2007,07,08,10,02,14.30
2007,07,08,10,03,14.40
2007,07,08,10,04,14.40
2007,07,08,10,05,14.40
2007,07,08,10,06,14.50
2007,07,08,10,07,14.60
2007,07,08,10,08,14.60
2007,07,08,10,09,14.70
2007,07,08,10,10,14.70
2007,07,08,10,11,14.80
2007,07,08,10,12,14.90
2007,07,08,10,13,15.00
2007,07,08,10,14,15.00
2007,07,08,10,15,15.00
2007,07,08,10,16,15.00
2007,07,08,10,17,15.00
2007,07,08,10,18,15.00
2007,07,08,10,19,15.10
2007,07,08,10,20,15.10
2007,07,08,10,21,15.10
2007,07,08,10,22,15.10
2007,07,08,10,23,15.10
2007,07,08,10,24,15.10
2007,07,08,10,25,15.10
2007,07,08,10,26,15.20
2007,07,08,10,27,15.20
2007,07,08,10,28,15.30
2007,07,08,10,29,15.30
2007,07,08,10,30,15.30
2007,07,08,10,31,15.20
2007,07,08,10,32,15.20
2007,07,08,10,33,15.20
2007,07,08,10,34,15.20
2007,07,08,10,35,15.20
2007,07,08,10,36,15.20
2007,07,08,10,37,15.30
2007,07,08,10,38,15.30
2007,07,08,10,39,15.40
2007,07,08,10,40,15.40
2007,07,08,10,41,15.50
2007,07,08,10,42,15.60
2007,07,08,10,43,15.70
2007,07,08,10,44,15.80
2007,07,08,10,45,15.80
2007,07,08,10,46,15.80
2007,07,08,10,47,15.80
2007,07,08,10,48,15.90
2007,07,08,10,49,15.90
2007,07,08,10,50,15.90
2007,07,08,10,51,15.90
2007,07,08,10,52,15.90
2007,07,08,10,53,15.80
2007,07,08,10,54,15.80
2007,07,08,10,55,15.80
2007,07,08,10,56,15.80
2007,07,08,10,57,15.70
2007,07,08,10,58,15.70
2007,07,08,10,59,15.70
2007,07,08,11,00,15.70
2007,07,08,11,01,15.70
2007,07,08,11,02,15.70
2007,07,08,11,03,15.70
2007,07,08,11,04,15.80
2007,07,08,11,05,15.80
2007,07,08,11,06,15.80
2007,07,08,11,07,15.80
2007,07,08,11,08,15.80
2007,07,08,11,09,15.80
2007,07,08,11,10,15.80
2007,07,08,11,11,15.80
2007,07,08,11,12,15.80
2007,07,08,11,13,15.80
2007,07,08,11,14,15.80
2007,07,08,11,15,15.80
2007,07,08,11,16,15.80
2007,07,08,11,17,15.80
2007,07,08,11,18,15.70
2007,07,08,11,19,15.70
2007,07,08,11,20,15.70
2007,07,08,11,21,15.70
2007,07,08,11,22,15.70
2007,07,08,11,23,15.70
2007,07,08,11,24,15.70
2007,07,08,11,25,15.70
2007,07,08,11,26,15.70
2007,07,08,11,27,15.70
2007,07,08,11,28,15.80
2007,07,08,11,29,15.80
2007,07,08,11,30,15.80
2007,07,08,11,31,15.70
2007,07,08,11,32,15.70
2007,07,08,11,33,15.70
2007,07,08,11,34,15.60
2007,07,08,11,35,15.60
2007,07,08,11,36,15.60
2007,07,08,11,37,15.70
2007,07,08,11,38,15.70
2007,07,08,11,39,15.70
2007,07,08,11,40,15.70
2007,07,08,11,41,15.80
2007,07,08,11,42,15.80
2007,07,08,11,43,15.90
2007,07,08,11,44,15.90
2007,07,08,11,45,15.90
2007,07,08,11,46,15.80
2007,07,08,11,47,15.80
2007,07,08,11,48,15.80
2007,07,08,11,49,15.80
2007,07,08,11,50,15.70
2007,07,08,11,51,15.70
2007,07,08,11,52,15.70
2007,07,08,11,53,15.70
2007,07,08,11,54,15.80
2007,07,08,11,55,15.80
2007,07,08,11,56,15.90
2007,07,08,11,57,15.90
2007,07,08,11,58,15.90
2007,07,08,11,59,15.90
2007,07,08,12,00,15.80
2007,07,08,12,01,15.80
2007,07,08,12,02,15.70
2007,07,08,12,03,15.70
2007,07,08,12,04,15.80
2007,07,08,12,05,15.80
2007,07,08,12,06,15.80
2007,07,08,12,07,15.80
2007,07,08,12,08,15.90
2007,07,08,12,09,15.90
2007,07,08,12,10,15.90
2007,07,08,12,11,15.90
2007,07,08,12,12,15.90
2007,07,08,12,13,15.90
2007,07,08,12,14,15.80
2007,07,08,12,15,15.80
2007,07,08,12,16,15.80
2007,07,08,12,17,15.90
2007,07,08,12,18,15.90
2007,07,08,12,19,15.90
2007,07,08,12,20,15.90
2007,07,08,12,21,15.90
2007,07,08,12,22,15.90
2007,07,08,12,23,16.00
2007,07,08,12,24,16.10
2007,07,08,12,25,16.10
2007,07,08,12,26,16.10
2007,07,08,12,27,16.10
2007,07,08,12,28,16.20
2007,07,08,12,29,16.30
2007,07,08,12,30,16.40
2007,07,08,12,31,16.60
2007,07,08,12,32,16.70
2007,07,08,12,33,16.70
2007,07,08,12,34,16.80
2007,07,08,12,35,16.80
2007,07,08,12,36,16.80
2007,07,08,12,37,16.80
2007,07,08,12,38,16.90
2007,07,08,12,39,16.90
2007,07,08,12,40,16.90
2007,07,08,12,41,16.80
2007,07,08,12,42,16.80
2007,07,08,12,43,16.70
2007,07,08,12,44,16.80
2007,07,08,12,45,16.90
2007,07,08,12,46,16.90
2007,07,08,12,47,16.90
2007,07,08,12,48,16.90
2007,07,08,12,49,16.90
2007,07,08,12,50,16.90
2007,07,08,12,51,16.90
2007,07,08,12,52,17.00
2007,07,08,12,53,17.00
2007,07,08,12,54,16.90
2007,07,08,12,55,17.00
2007,07,08,12,56,16.90
2007,07,08,12,57,17.00
2007,07,08,12,58,17.00
2007,07,08,12,59,17.10
2007,07,08,13,00,17.20
2007,07,08,13,01,17.30
2007,07,08,13,02,17.30
2007,07,08,13,03,17.30
2007,07,08,13,04,17.40
2007,07,08,13,05,17.40
2007,07,08,13,06,17.50
2007,07,08,13,07,17.60
2007,07,08,13,08,17.60
2007,07,08,13,09,17.50
2007,07,08,13,10,17.60
2007,07,08,13,11,17.60
2007,07,08,13,12,17.60
2007,07,08,13,13,17.70
2007,07,08,13,14,17.70
2007,07,08,13,15,17.70
2007,07,08,13,16,17.70
2007,07,08,13,17,17.70
2007,07,08,13,18,17.60
2007,07,08,13,19,17.60
2007,07,08,13,20,17.70
2007,07,08,13,21,17.70
2007,07,08,13,22,17.80
2007,07,08,13,23,17.80
2007,07,08,13,24,17.80
2007,07,08,13,25,17.70
2007,07,08,13,26,17.70
2007,07,08,13,27,17.80
2007,07,08,13,28,17.80
2007,07,08,13,29,17.90
2007,07,08,13,30,17.80
2007,07,08,13,31,17.80
2007,07,08,13,32,17.80
2007,07,08,13,33,17.80
2007,07,08,13,34,17.80
2007,07,08,13,35,17.80
2007,07,08,13,36,17.80
2007,07,08,13,37,17.70
2007,07,08,13,38,17.70
2007,07,08,13,39,17.80
2007,07,08,13,40,17.80
2007,07,08,13,41,17.80
2007,07,08,13,42,17.80
2007,07,08,13,43,17.80
2007,07,08,13,44,17.80
2007,07,08,13,45,17.80
2007,07,08,13,46,17.90
2007,07,08,13,47,17.90
2007,07,08,13,48,17.90
2007,07,08,13,49,17.80
2007,07,08,13,50,17.70
2007,07,08,13,51,17.70
2007,07,08,13,52,17.70
2007,07,08,13,53,17.80
2007,07,08,13,54,17.90
2007,07,08,13,55,18.00
2007,07,08,13,56,18.10
2007,07,08,13,57,18.20
2007,07,08,13,58,18.30
2007,07,08,13,59,18.30
2007,07,08,14,00,18.40
2007,07,08,14,01,18.40
2007,07,08,14,02,18.40
2007,07,08,14,03,18.40
2007,07,08,14,04,18.30
2007,07,08,14,05,18.30
2007,07,08,14,06,18.20
2007,07,08,14,07,18.20
2007,07,08,14,08,18.20
2007,07,08,14,09,18.10
2007,07,08,14,10,18.10
2007,07,08,14,11,18.20
2007,07,08,14,12,18.20
2007,07,08,14,13,18.20
2007,07,08,14,14,18.10
2007,07,08,14,15,18.10
2007,07,08,14,16,18.10
2007,07,08,14,17,18.00
2007,07,08,14,18,18.00
2007,07,08,14,19,17.90
2007,07,08,14,20,17.90
2007,07,08,14,21,17.80
2007,07,08,14,22,17.80
2007,07,08,14,23,17.80
2007,07,08,14,24,17.70
2007,07,08,14,25,17.70
2007,07,08,14,26,17.80
2007,07,08,14,27,17.90
2007,07,08,14,28,18.00
2007,07,08,14,29,18.10
2007,07,08,14,30,18.20
2007,07,08,14,31,18.30
2007,07,08,14,32,18.30
2007,07,08,14,33,18.20
2007,07,08,14,34,18.10
2007,07,08,14,35,18.00
2007,07,08,14,36,17.90
2007,07,08,14,37,17.90
2007,07,08,14,38,18.00
2007,07,08,14,39,18.10
2007,07,08,14,40,18.10
2007,07,08,14,41,18.10
2007,07,08,14,42,18.10
2007,07,08,14,43,18.00
2007,07,08,14,44,18.00
2007,07,08,14,45,17.90
2007,07,08,14,46,17.80
2007,07,08,14,47,17.90
2007,07,08,14,48,17.80
2007,07,08,14,49,17.70
2007,07,08,14,50,17.70
2007,07,08,14,51,17.60
2007,07,08,14,52,17.50
2007,07,08,14,53,17.50
2007,07,08,14,54,17.50
2007,07,08,14,55,17.50
2007,07,08,14,56,17.60
2007,07,08,14,57,17.70
2007,07,08,14,58,17.90
2007,07,08,14,59,18.10
2007,07,08,15,00,18.10
2007,07,08,15,01,18.20
2007,07,08,15,02,18.20
2007,07,08,15,03,18.20
2007,07,08,15,04,18.30
2007,07,08,15,05,18.30
2007,07,08,15,06,18.30
2007,07,08,15,07,18.40
2007,07,08,15,08,18.50
2007,07,08,15,09,18.50
2007,07,08,15,10,18.50
2007,07,08,15,11,18.60
2007,07,08,15,12,18.70
2007,07,08,15,13,18.70
2007,07,08,15,14,18.80
2007,07,08,15,15,18.80
2007,07,08,15,16,18.70
2007,07,08,15,17,18.60
2007,07,08,15,18,18.50
2007,07,08,15,19,18.50
2007,07,08,15,20,18.60
2007,07,08,15,21,18.80
2007,07,08,15,22,18.90
2007,07,08,15,23,19.00
2007,07,08,15,24,19.10
2007,07,08,15,25,19.10
2007,07,08,15,26,19.10
2007,07,08,15,27,19.10
2007,07,08,15,28,19.10
2007,07,08,15,29,19.20
2007,07,08,15,30,19.30
2007,07,08,15,31,19.40
2007,07,08,15,32,19.50
2007,07,08,15,33,19.60
2007,07,08,15,34,19.70
2007,07,08,15,35,19.70
2007,07,08,15,36,19.80
2007,07,08,15,37,19.80
2007,07,08,15,38,19.70
2007,07,08,15,39,19.70
2007,07,08,15,40,19.70
2007,07,08,15,41,19.70
2007,07,08,15,42,19.80
2007,07,08,15,43,19.80
2007,07,08,15,44,19.70
2007,07,08,15,45,19.70
2007,07,08,15,46,19.70
2007,07,08,15,47,19.60
2007,07,08,15,48,19.60
2007,07,08,15,49,19.60
2007,07,08,15,50,19.70
2007,07,08,15,51,19.90
2007,07,08,15,52,20.10
2007,07,08,15,53,20.20
2007,07,08,15,54,20.40
2007,07,08,15,55,20.50
2007,07,08,15,56,20.60
2007,07,08,15,57,20.60
2007,07,08,15,58,20.60
2007,07,08,15,59,20.60
2007,07,08,16,00,20.50
2007,07,08,16,01,20.50
2007,07,08,16,02,20.50
2007,07,08,16,03,20.60
2007,07,08,16,04,20.60
2007,07,08,16,05,20.70
2007,07,08,16,06,20.70
2007,07,08,16,07,20.70
2007,07,08,16,08,20.80
2007,07,08,16,09,20.80
2007,07,08,16,10,20.70
2007,07,08,16,11,20.60
2007,07,08,16,12,20.60
2007,07,08,16,13,20.70
2007,07,08,16,14,20.70
2007,07,08,16,15,20.80
2007,07,08,16,16,20.80
2007,07,08,16,17,20.80
2007,07,08,16,18,20.70
2007,07,08,16,19,20.70
2007,07,08,16,20,20.70
2007,07,08,16,21,20.80
2007,07,08,16,22,20.90
2007,07,08,16,23,21.00
2007,07,08,16,24,21.20
2007,07,08,16,25,21.20
2007,07,08,16,26,21.30
2007,07,08,16,27,21.30
2007,07,08,16,28,21.30
2007,07,08,16,29,21.20
2007,07,08,16,30,21.20
2007,07,08,16,31,21.20
2007,07,08,16,32,21.20
2007,07,08,16,33,21.30
2007,07,08,16,34,21.30
2007,07,08,16,35,21.50
2007,07,08,16,36,21.60
2007,07,08,16,37,21.70
2007,07,08,16,38,21.90
2007,07,08,16,39,22.00
2007,07,08,16,40,22.00
2007,07,08,16,41,22.10
2007,07,08,16,42,22.10
2007,07,08,16,43,22.10
2007,07,08,16,44,22.30
2007,07,08,16,45,22.40
2007,07,08,16,46,22.50
2007,07,08,16,47,22.70
2007,07,08,16,48,22.80
2007,07,08,16,49,22.80
2007,07,08,16,50,22.70
2007,07,08,16,51,22.60
2007,07,08,16,52,22.60
2007,07,08,16,53,22.60
2007,07,08,16,54,22.50
2007,07,08,16,55,22.40
2007,07,08,16,56,22.30
2007,07,08,16,57,22.30
2007,07,08,16,58,22.40
2007,07,08,16,59,22.40
2007,07,08,17,00,22.40
2007,07,08,17,01,22.40
2007,07,08,17,02,22.40
2007,07,08,17,03,22.40
2007,07,08,17,04,22.40
2007,07,08,17,05,22.30
2007,07,08,17,06,22.30
2007,07,08,17,07,22.20
2007,07,08,17,08,22.20
2007,07,08,17,09,22.20
2007,07,08,17,10,22.30
2007,07,08,17,11,22.30
2007,07,08,17,12,22.20
2007,07,08,17,13,22.10
2007,07,08,17,14,22.00
2007,07,08,17,15,21.80
2007,07,08,17,16,21.60
2007,07,08,17,17,21.50
2007,07,08,17,18,21.40
2007,07,08,17,19,21.30